Location: Sternwarte_Laufen
(47.9344°N, 12.9346°E)
Time: 09:46:57
(UTC+02:00)

ISS - Visible Passes

Search period start: 27 May 2018 00:00
Search period end: 06 June 2018 00:00
Orbit: 402 x 407 km, 51.6° (Epoch: 27 May)

Date Brightness Start Highest point End Pass type
(mag) Time Alt. Az. Time Alt. Az. Time Alt. Az.
27 May -3.3 00:22:24 10° WNW 00:25:39 57° NNE 00:26:26 42° ENE visible
27 May -1.0 01:59:01 10° WNW 01:59:03 10° WNW 01:59:03 10° WNW visible
27 May -2.7 21:53:20 10° W 21:56:31 47° N 21:59:43 10° ENE visible
27 May -2.8 23:30:11 10° WNW 23:33:21 46° N 23:35:43 16° E visible
28 May -2.2 01:06:42 10° WNW 01:08:21 26° W 01:08:21 26° W visible
28 May -2.6 22:37:54 10° WNW 22:41:03 42° N 22:44:11 10° ENE visible
29 May -3.9 00:14:28 10° WNW 00:17:42 87° NW 00:17:42 87° NW visible
29 May -2.5 21:45:34 10° WNW 21:48:42 41° N 21:51:50 10° ENE visible
29 May -3.5 23:22:15 10° WNW 23:25:31 64° NNE 23:27:06 27° E visible
30 May -1.5 00:58:55 10° W 00:59:44 15° W 00:59:44 15° W visible
30 May -3.0 22:30:00 10° WNW 22:33:12 49° NNE 22:36:24 10° E visible
31 May -3.2 00:06:33 10° WNW 00:09:09 43° WSW 00:09:09 43° WSW visible
31 May -2.7 21:37:41 10° WNW 21:40:51 43° N 21:44:00 10° E visible
31 May -4.0 23:14:14 10° WNW 23:17:31 79° SSW 23:18:35 39° SE visible
01 Jun -3.6 22:21:58 10° WNW 22:25:15 71° NNE 22:28:03 13° ESE visible
01 Jun -2.2 23:58:45 10° W 00:00:41 23° WSW 00:00:41 23° WSW visible
02 Jun -3.3 23:06:15 10° WNW 23:09:22 42° SSW 23:10:11 34° S visible
03 Jun -3.8 22:13:54 10° WNW 22:17:10 68° SSW 22:19:41 16° SE visible
03 Jun -1.3 23:51:34 10° WSW 23:52:20 12° WSW 23:52:20 12° WSW visible
04 Jun -2.2 22:58:29 10° W 23:01:03 21° SW 23:01:52 20° SSW visible
05 Jun -2.9 22:05:53 10° WNW 22:08:55 35° SW 22:11:26 13° SSE visible
